| time (UTC) | temp C | wind direction | speed KPH | gust KPH | rain 1hr cm | rain 24hr cm | rain mn cm | humidity % | barometer mb |
| 20260504060104 | 18 | 236 | 0.0 | 0.0 | 0.00 | 0.00 | 0.00 | 72 | 1016.3 |
| 20260504044600 | 17 | 236 | 0.0 | 0.0 | 0.00 | 0.00 | 0.00 | 74 | 1016.8 |
| 20260504043050 | 17 | 236 | 0.0 | 0.0 | 0.00 | 0.00 | 0.00 | 73 | 1016.9 |
| 20260504041550 | 17 | 236 | 0.0 | 0.0 | 0.00 | 0.00 | 0.00 | 72 | 1016.8 |
| 20260504040049 | 18 | 236 | 0.0 | 0.0 | 0.00 | 0.00 | 0.00 | 70 | 1016.8 |
| 20260504034554 | 18 | 236 | 0.0 | 0.0 | 0.00 | 0.00 | 0.00 | 68 | 1016.9 |
| 20260504033055 | 19 | 236 | 0.0 | 0.0 | 0.00 | 0.00 | 0.00 | 67 | 1016.8 |
| 20260504031549 | 19 | 236 | 0.0 | 0.0 | 0.00 | 0.00 | 0.00 | 66 | 1016.7 |
| 20260504030047 | 20 | 236 | 0.0 | 0.0 | 0.00 | 0.00 | 0.00 | 68 | 1016.7 |
| 20260504024548 | 20 | 236 | 0.0 | 0.0 | 0.00 | 0.00 | 0.00 | 65 | 1016.8 |
| 20260504023047 | 20 | 236 | 0.0 | 0.0 | 0.00 | 0.00 | 0.00 | 65 | 1016.7 |
| 20260504021546 | 20 | 236 | 0.0 | 0.0 | 0.00 | 0.00 | 0.00 | 64 | 1016.7 |
| 20260504020045 | 20 | 236 | 0.0 | 0.0 | 0.00 | 0.00 | 0.00 | 62 | 1016.7 |
| 20260504014548 | 21 | 236 | 0.0 | 0.0 | 0.00 | 0.00 | 0.00 | 61 | 1016.6 |
| 20260504013049 | 21 | 236 | 0.0 | 0.0 | 0.00 | 0.00 | 0.00 | 59 | 1016.8 |
| 20260504011548 | 21 | 95 | 0.0 | 0.0 | 0.00 | 0.00 | 0.00 | 58 | 1016.5 |
| 20260504010053 | 21 | 86 | 0.0 | 0.0 | 0.00 | 0.00 | 0.00 | 57 | 1016.5 |
| 20260504004544 | 22 | 81 | 0.0 | 1.6 | 0.00 | 0.00 | 0.00 | 55 | 1016.5 |
| 20260504003043 | 22 | 69 | 0.0 | 1.6 | 0.00 | 0.00 | 0.00 | 55 | 1016.4 |
| 20260504001601 | 22 | 117 | 0.0 | 3.2 | 0.00 | 0.00 | 0.00 | 53 | 1016.5 |
| 20260504000043 | 23 | 108 | 0.0 | 1.6 | 0.00 | 0.00 | 0.00 | 51 | 1016.4 |
| 20260503234539 | 23 | 121 | 0.0 | 3.2 | 0.00 | 0.00 | 0.00 | 49 | 1016.7 |
| 20260503233038 | 23 | 198 | 0.0 | 3.2 | 0.00 | 0.00 | 0.00 | 50 | 1016.8 |
| 20260503231538 | 23 | 115 | 0.0 | 3.2 | 0.00 | 0.00 | 0.00 | 49 | 1016.8 |
| 20260503230036 | 24 | 115 | 0.0 | 4.8 | 0.00 | 0.00 | 0.00 | 47 | 1016.9 |
| 20260503224537 | 24 | 163 | 0.0 | 3.2 | 0.00 | 0.00 | 0.00 | 48 | 1017.0 |
| 20260503223034 | 25 | 151 | 0.0 | 3.2 | 0.00 | 0.00 | 0.00 | 46 | 1017.3 |
| 20260503221540 | 25 | 200 | 0.0 | 3.2 | 0.00 | 0.00 | 0.00 | 44 | 1017.1 |
| 20260503220040 | 25 | 171 | 0.0 | 3.2 | 0.00 | 0.00 | 0.00 | 46 | 1017.2 |
| 20260503214530 | 25 | 143 | 0.0 | 3.2 | 0.00 | 0.00 | 0.00 | 45 | 1017.6 |
| 20260503213037 | 25 | 146 | 0.0 | 3.2 | 0.00 | 0.00 | 0.00 | 43 | 1017.7 |
| 20260503211528 | 25 | 274 | 3.2 | 6.4 | 0.00 | 0.00 | 0.00 | 44 | 1017.8 |
| 20260503210026 | 25 | 160 | 0.0 | 1.6 | 0.00 | 0.00 | 0.00 | 44 | 1018.1 |
| 20260503204526 | 25 | 79 | 0.0 | 6.4 | 0.00 | 0.00 | 0.00 | 43 | 1018.2 |
| 20260503203022 | 25 | 94 | 3.2 | 16.1 | 0.00 | 0.00 | 0.00 | 42 | 1018.5 |
| 20260503201528 | 25 | 322 | 0.0 | 14.5 | 0.00 | 0.00 | 0.00 | 42 | 1018.7 |
| 20260503200029 | 25 | 81 | 0.0 | 11.3 | 0.00 | 0.00 | 0.00 | 46 | 1018.8 |
| 20260503194526 | 25 | 129 | 1.6 | 16.1 | 0.00 | 0.00 | 0.00 | 44 | 1019.0 |
| 20260503193019 | 25 | 127 | 1.6 | 9.7 | 0.00 | 0.00 | 0.00 | 42 | 1019.4 |
| 20260503191521 | 25 | 106 | 0.0 | 6.4 | 0.00 | 0.00 | 0.00 | 44 | 1019.5 |
| 20260503190021 | 25 | 90 | 4.8 | 17.7 | 0.00 | 0.00 | 0.00 | 46 | 1019.7 |
| 20260503184522 | 25 | 324 | 4.8 | 11.3 | 0.00 | 0.00 | 0.00 | 41 | 1019.9 |
| 20260503183024 | 25 | 102 | 0.0 | 14.5 | 0.00 | 0.00 | 0.00 | 37 | 1020.1 |
| 20260503181526 | 24 | 61 | 1.6 | 19.3 | 0.00 | 0.00 | 0.00 | 36 | 1020.4 |
| 20260503180013 | 25 | 71 | 8.0 | 19.3 | 0.00 | 0.00 | 0.00 | 38 | 1020.6 |
| 20260503174508 | 24 | 79 | 12.9 | 22.5 | 0.00 | 0.00 | 0.00 | 39 | 1020.8 |
| 20260503173028 | 24 | 115 | 0.0 | 14.5 | 0.00 | 0.00 | 0.00 | 38 | 1021.1 |
| 20260503171509 | 24 | 85 | 0.0 | 20.9 | 0.00 | 0.00 | 0.00 | 39 | 1021.1 |
| 20260503100118 | 13 | 59 | 0.0 | 0.0 | 0.00 | 0.00 | 0.00 | 89 | 1019.2 |
| 20260503081550 | 15 | 59 | 0.0 | 0.0 | 0.00 | 0.00 | 0.00 | 82 | 1019.2 |
| 20260503071539 | 16 | 59 | 0.0 | 3.2 | 0.00 | 0.00 | 0.00 | 79 | 1019.0 |